Miscellaneous Local Product
Issued by NWS North Platte, NE

Home | Current Version | Previous Version | Text Only | Print | Product List | Glossary On
Versions: 1 2 3 4 5 6 7 8 9 10 11 12 13 14 15 16 17 18 19 20 21 22 23 24 25 26 27 28 29 30 31 32 33 34 35 36 37 38 39 40 41 42 43 44 45 46 47 48 49 50
000
AXUS43 KLBF 041410
MISLBF


WESTERN AND NORTH CENTRAL NEBRASKA HOURLY WEATHER ROUNDUP
NATIONAL WEATHER SERVICE NORTH PLATTE NE
900 AM CDT MON MAY 04 2015

***STATIONS NOT REPORTING VARIABLES SUCH AS SKY/WEATHER OR
PRESSURE ARE PROVIDED BY THE NEBRASKA DEPARTMENT OF
ROADS...RAWS...AND APRS NETWORKS...AND ARE NOT UNDER
NATIONAL WEATHER SERVICE QUALITY CONTROL***

...OBSERVATIONS IN AND NEAR THE EASTERN PANHANDLE OF NEBRASKA...

CITY           SKY/WX    TMP DP  RH WIND       PRES   REMARKS
PINE RIDGE     CLOUDY    48  37  65 N3        30.18R
CHADRON        LGT RAIN  47  42  83 NE8       30.18R
ALLIANCE       CLOUDY    49  39  68 E7        30.14S
SIDNEY         CLOUDY    50  35  56 E12       30.14R
WHITECLAY        N/A     46  35  65 W3          N/A
CRESCENT LAKE    N/A     51  26  37 E10         N/A
BIG SPRINGS      N/A     54  32  43 E12         N/A
$$

...OBSERVATIONS IN NORTH CENTRAL NEBRASKA...

CITY           SKY/WX    TMP DP  RH WIND       PRES   REMARKS
VALENTINE      PTSUNNY   54  32  43 NE12      30.17R
THEDFORD       CLOUDY    55  30  38 NE17      30.14S
AINSWORTH      CLOUDY    55  28  35 E13       30.16R
O`NEILL        CLOUDY    53  34  48 NE12      30.16R
ORD            CLOUDY    57  29  34 NE13G21   30.09R
BROKEN BOW     CLOUDY    57  30  35 NE17G25   30.10R
BROWNLEE         N/A     56  30  37 NE16        N/A
VALENTINE NWR    N/A     51  31  45 NE9         N/A
SPRINGVIEW       N/A     55  28  35 NE12G20     N/A
HALSEY           N/A     52  30  42 NE7G15      N/A
BREWSTER         N/A     57  30  36 E13         N/A
ROSE             N/A     56  33  42 NE15        N/A
NEWPORT          N/A     52  30  42 NE14        N/A
SARGENT          N/A     55  31  40 NE5G15      N/A
COMSTOCK         N/A     61  33  35 E15         N/A
EWING            N/A     57  36  45 NE6         N/A
$$

...OBSERVATIONS IN SOUTHWEST NEBRASKA AND FAR NORTHEAST COLORADO...

CITY           SKY/WX    TMP DP  RH WIND       PRES   REMARKS
WRAY           CLOUDY    52  40  63 N6        30.12R
IMPERIAL       CLOUDY    52  37  56 N7        30.12R
OGALLALA       CLOUDY    55  29  38 E13       30.13R
NORTH PLATTE   CLOUDY    54  31  41 E13       30.12R
MCCOOK         CLOUDY    58  39  49 NE16      30.07S
LEXINGTON      CLOUDY    57  37  47 NE15      30.09R
PAXTON           N/A     55  33  43 E7          N/A
SUTHERLAND       N/A     52  29  40 E12         N/A
GOTHENBURG       N/A     57  31  38 NE12        N/A
CALLAWAY         N/A     56  34  44 E9          N/A
$$

...NORTH PLATTE AREA...

CITY           SKY/WX    TMP DP  RH WIND       PRES   REMARKS
AIRPORT        CLOUDY    54  31  41 E13       30.12R
DOWNTOWN         N/A     55  31  40 NE3         N/A
$$

...SOME WEATHER OBSERVATIONS FROM AROUND THE REGION...

CITY           SKY/WX    TMP DP  RH WIND       PRES   REMARKS
DENVER         CLOUDY    49  45  86 E5        30.13R
LARAMIE        CLOUDY    44  41  89 S25       30.11R
CHEYENNE       CLOUDY    46  39  76 S10       30.15R
SCOTTSBLUFF    LGT RAIN  48  40  73 E10       30.15R
RAPID CITY     LGT RAIN  44  41  89 E5        30.22R FOG
PIERRE         CLOUDY    51  28  41 CALM      30.20R
WINNER         FAIR      52  27  38 E5        30.19R
SIOUX FALLS    PTSUNNY   56  32  40 NE12      30.14S
OMAHA          LGT RAIN  59  51  75 N18       30.04S
GRAND ISLAND   CLOUDY    58  35  42 NE24G32   30.04F
KANSAS CITY    CLOUDY    66  58  75 S5        30.00S
WICHITA        CLOUDY    67  57  70 S12       30.02R
HAYS           CLOUDY    59  46  63 NE7       30.01S
LIBERAL        CLOUDY    63  55  77 SE3       30.03R
GOODLAND       CLOUDY    53  45  74 NE7       30.10R
$$



USA.gov is the U.S. government's official web portal to all federal, state and local government web resources and services.